Vorticity
5 5 6 6 6 7 7 7 7 8 7 7 6 6 6 5 5 5 5 7 8 10 10 7 6 5 5 7 6 4 6 6 9 10 11 8 -9 4 15 -1 8 17 13 10 3 5 5 4 4 0 1 2 3 3 3 3 3 3 -3 -3 6 4 -2 0 9 11 5 6 8 8 8 10 11 7 6 9 8 8 9 10 7 6 7 6 6 8 8 7
4 4 4 4 4 5 5 6 6 7 7 7 7 7 7 6 5 5 5 5 6 8 10 10 7 6 5 5 7 5 5 5 7 7 9 16 4 1 11 4 1 7 12 12 3 1 4 5 4 3 2 2 3 3 3 3 2 4 2 -2 3 7 3 3 8 5 -0 3 7 8 8 9 6 4 7 8 8 7 6 7 6 5 6 7 7 8 11 9
2 2 2 2 3 3 3 3 4 5 5 6 7 7 7 7 6 5 5 5 5 7 9 11 10 8 6 5 6 6 5 4 5 8 8 13 15 8 9 8 4 3 8 12 9 2 0 3 3 3 3 2 3 3 2 3 3 4 5 3 0 2 4 5 9 6 0 2 4 4 5 6 4 3 5 6 9 8 5 4 2 4 5 7 8 7 11 9
3 3 3 2 2 2 2 2 2 2 3 3 4 6 6 7 7 6 6 5 4 5 7 9 11 9 8 6 6 6 5 5 5 6 8 10 15 12 8 8 6 4 5 9 12 9 3 2 4 4 3 2 1 1 3 3 3 3 4 5 3 1 1 -0 6 12 10 9 7 3 3 5 3 2 5 7 9 6 5 5 1 5 7 6 7 8 10 9
6 6 5 5 5 4 3 3 2 2 2 2 2 3 3 5 6 7 7 7 5 4 5 6 10 10 10 8 6 6 5 5 5 4 5 8 12 12 10 9 7 4 3 5 8 12 12 5 2 4 5 5 1 1 4 4 4 4 5 6 5 4 4 -0 2 11 12 8 6 4 4 5 4 5 10 8 4 4 7 8 4 5 7 6 7 8 9 8
7 7 7 7 7 7 7 6 5 5 4 3 2 1 2 2 3 5 5 7 7 6 5 5 7 9 10 10 8 7 5 5 5 5 5 6 8 11 12 10 7 6 5 4 3 8 16 13 5 2 5 6 4 4 4 4 4 5 5 6 6 4 5 5 2 9 10 1 -0 4 5 7 8 7 10 6 4 8 9 6 3 5 8 8 10 10 9 8
8 7 7 7 7 7 7 8 7 7 7 6 6 4 3 2 1 2 3 4 6 6 7 5 5 7 9 10 10 8 7 6 6 5 5 5 6 8 13 13 9 8 10 7 2 1 8 15 13 4 3 6 6 6 4 5 5 4 3 5 7 3 4 7 3 5 7 3 2 4 4 7 7 6 8 6 5 8 6 4 3 8 10 7 11 13 12 10
10 9 9 8 8 8 7 7 7 7 8 7 7 7 6 5 4 2 2 2 3 5 6 7 6 5 6 8 9 9 8 8 7 6 6 6 6 7 10 14 13 11 11 8 4 0 1 9 13 8 5 6 7 8 7 6 6 6 6 6 6 4 3 5 4 3 5 7 4 2 3 5 6 7 7 6 7 4 2 5 4 9 12 8 9 12 14 12
11 11 11 10 10 9 9 8 8 7 7 7 7 7 7 7 7 6 5 3 1 2 3 6 7 6 6 6 7 8 8 9 8 7 7 6 6 7 7 10 13 11 9 8 5 2 2 6 9 7 6 6 5 6 7 8 9 9 8 6 4 4 4 3 5 6 5 5 3 4 4 3 5 8 6 5 7 3 3 10 8 9 11 7 8 10 13 14
12 12 12 12 12 11 11 10 10 9 8 8 7 7 7 7 7 7 7 6 4 3 2 2 4 7 6 6 6 6 7 10 9 7 8 7 6 8 7 6 10 13 11 9 7 5 4 3 3 5 6 5 4 3 6 9 11 7 4 4 2 2 4 3 6 6 4 1 -0 3 4 3 7 8 6 6 6 5 7 10 8 8 9 5 6 8 11 15
11 12 12 12 13 12 12 12 12 11 11 10 9 9 8 7 6 7 7 7 7 6 4 2 1 4 6 7 6 4 6 9 9 8 9 9 5 5 8 7 6 11 14 12 10 8 7 4 2 4 4 5 5 3 5 6 5 4 2 3 1 2 3 4 7 5 4 3 -0 3 6 5 6 6 5 7 7 5 5 6 4 4 5 4 6 8 8 11
9 9 10 10 11 12 11 11 12 12 12 12 11 11 10 9 8 7 6 6 7 7 7 6 3 2 4 7 6 4 6 7 8 8 9 12 8 4 6 8 5 7 12 15 13 9 8 7 4 4 3 4 5 4 5 4 3 4 4 4 3 4 5 4 7 6 6 5 1 5 8 5 6 6 3 3 4 2 1 6 6 2 3 5 6 9 9 7
7 7 7 7 8 9 9 9 10 11 11 11 12 12 12 11 11 10 9 7 6 7 6 7 8 5 3 3 3 5 6 5 6 6 7 10 11 7 4 6 6 4 8 13 14 11 8 6 6 6 4 3 2 2 5 6 4 4 5 7 6 6 6 3 4 7 7 6 2 4 7 5 4 5 2 1 5 4 2 6 6 2 5 6 5 9 9 7
8 7 7 7 6 7 7 7 8 9 9 9 10 11 12 12 12 12 11 11 9 7 6 6 7 7 7 4 0 4 7 6 5 4 5 5 8 10 6 5 6 5 6 10 13 13 11 8 6 6 4 4 2 -1 2 4 3 3 5 9 9 7 7 4 4 9 9 6 6 4 3 2 3 9 8 2 7 8 1 3 6 5 7 5 3 7 9 8
6 7 7 8 8 7 8 7 6 7 7 7 8 9 10 10 11 12 12 12 12 10 8 7 6 6 9 8 2 2 5 6 5 4 4 3 5 10 10 6 5 5 4 5 9 12 13 10 7 7 6 5 3 0 1 2 2 2 2 4 6 5 5 5 7 12 9 5 10 6 2 6 6 11 10 1 5 5 -2 2 7 6 6 3 0 5 8 8
5 6 6 6 7 7 8 8 7 8 7 6 7 7 8 8 8 9 11 13 13 11 10 10 9 6 7 10 7 4 4 5 5 4 4 3 3 7 11 11 7 6 5 4 6 8 11 12 9 8 8 5 3 3 2 1 3 4 3 4 4 5 5 4 8 12 6 2 7 5 2 8 8 7 9 4 2 -0 -2 2 5 5 3 1 1 4 6 7
8 8 8 8 7 7 7 8 8 9 9 8 7 6 7 7 7 6 7 12 13 11 11 12 12 10 8 9 9 8 5 4 4 5 5 2 2 3 7 13 11 7 6 6 5 5 8 12 12 8 6 6 5 4 1 2 6 6 6 7 6 8 10 6 6 9 6 2 8 8 2 5 7 4 7 7 1 1 5 4 5 6 2 2 5 6 6 7
9 9 9 9 9 9 8 8 7 8 9 10 9 8 7 7 6 4 6 11 11 8 8 9 11 12 12 10 9 9 8 6 5 5 6 4 2 2 3 9 12 9 8 6 5 6 6 10 14 11 7 6 5 3 1 4 9 4 3 6 3 6 12 13 11 8 6 6 12 11 3 2 6 4 8 9 1 4 11 6 5 7 2 2 3 3 5 6
9 8 8 8 8 8 9 9 8 8 8 9 9 10 9 8 7 4 6 10 7 7 9 8 8 9 14 15 10 8 7 8 7 5 6 5 3 2 -0 3 8 10 9 7 6 5 5 7 8 10 11 12 9 5 4 6 8 4 5 9 6 3 7 14 16 11 7 8 11 12 7 5 6 4 6 8 2 4 13 12 8 8 3 0 1 3 5 7
9 9 9 9 9 8 9 9 10 10 10 9 9 10 10 10 10 6 9 11 5 6 9 6 5 5 10 16 14 11 9 7 9 10 8 5 5 4 1 -0 2 8 9 9 10 6 5 6 5 6 13 20 17 9 8 8 6 4 6 10 12 10 9 12 15 13 8 5 7 10 9 6 5 3 2 6 5 4 12 15 9 8 6 0 0 4 6 9
10 11 12 13 13 12 11 12 12 12 13 12 11 11 10 10 11 10 14 17 9 7 8 6 5 4 6 12 14 13 12 9 8 12 12 7 4 4 4 2 0 4 5 8 12 10 6 6 6 7 10 16 18 14 12 9 6 4 3 5 10 12 11 12 13 12 7 5 7 8 8 7 5 3 2 4 2 -1 10 16 7 6 10 2 -0 6 6 8
13 14 14 16 17 16 15 15 16 16 15 16 15 14 13 12 12 10 11 14 11 8 7 6 5 4 5 9 10 11 13 13 8 9 13 11 7 4 4 4 3 4 4 6 10 11 9 5 5 9 8 8 11 14 15 12 8 5 4 4 8 10 8 10 13 10 5 7 11 8 6 8 9 9 6 2 -0 -2 9 16 6 6 10 0 -2 5 7 8
17 18 17 19 20 20 19 18 17 19 18 17 18 18 18 17 16 14 11 9 9 10 10 9 7 6 6 7 8 7 10 13 9 7 11 14 12 7 4 4 5 5 3 3 6 9 10 8 7 9 8 6 7 10 13 15 11 6 6 6 6 7 7 10 12 8 3 6 14 10 2 7 12 12 8 6 7 2 1 7 7 6 6 -0 -1 2 4 8
19 21 21 20 21 22 22 19 19 22 22 18 18 19 20 19 18 19 18 15 12 11 11 12 11 10 10 8 7 6 7 13 13 8 7 12 14 10 8 5 5 5 2 3 5 5 7 9 11 9 7 7 8 7 9 13 13 9 8 8 6 7 9 11 10 7 4 4 12 11 1 2 7 8 11 9 7 1 -5 0 5 4 1 -1 -0 -1 1 7
20 21 21 19 19 19 19 19 18 19 21 20 18 19 21 20 19 19 18 20 20 16 14 14 12 12 12 11 9 5 4 10 15 12 6 8 13 12 9 6 4 5 5 3 4 3 3 8 11 8 7 7 6 7 8 11 14 11 9 8 6 7 9 12 11 7 5 3 10 12 -0 -5 -2 4 9 7 4 3 2 3 3 2 1 -2 -2 -3 0 6
19 20 20 19 18 14 13 16 16 17 20 23 23 22 22 21 20 22 18 19 23 20 17 17 16 16 14 13 14 6 -0 4 11 14 10 6 10 13 13 10 5 5 7 6 3 2 1 5 10 8 7 6 5 6 6 8 13 14 15 11 5 6 6 11 13 6 3 4 6 6 -0 -3 -1 2 3 5 5 3 6 7 4 3 1 -1 -1 -2 2 6
15 16 15 14 13 10 10 12 13 15 18 20 22 23 26 25 23 26 22 19 23 22 21 19 18 22 18 14 18 11 2 7 10 10 10 7 5 6 10 12 8 3 5 6 3 2 3 4 7 7 7 6 5 4 4 7 10 15 22 16 5 5 3 8 13 5 3 7 1 -3 1 2 -2 0 6 7 3 1 6 8 5 5 1 0 2 0 3 4
9 10 7 6 6 5 6 7 8 11 12 10 12 14 18 21 24 28 25 20 20 18 21 21 18 24 22 17 21 15 6 11 13 11 10 10 10 9 9 12 12 7 6 6 3 3 7 5 2 6 10 8 5 5 6 9 7 11 22 17 8 5 2 10 16 7 5 5 -0 -1 5 6 -1 1 8 5 -0 2 7 8 7 9 7 7 10 5 2 2
7 7 8 7 8 8 8 7 6 5 5 3 4 8 11 11 14 20 20 19 19 13 15 21 19 22 23 19 21 20 10 8 14 17 15 12 11 10 10 10 10 10 10 10 6 5 7 5 2 4 9 10 6 5 7 10 6 9 17 17 12 5 3 15 17 8 5 -3 -2 6 6 4 3 5 5 2 7 8 5 9 11 12 15 17 19 14 6 1
18 15 15 16 16 16 16 16 16 15 13 9 6 6 10 9 8 11 10 12 20 16 14 19 20 22 24 20 20 23 16 8 12 20 20 16 9 8 12 12 10 11 12 12 8 6 6 7 6 4 6 8 7 6 7 10 9 10 15 16 14 8 4 14 17 9 1 -10 -2 12 7 1 2 4 1 -1 11 13 5 7 6 5 11 10 12 17 9 1
26 24 24 24 23 23 22 21 22 23 21 20 19 17 15 13 11 12 9 9 13 13 11 16 18 19 23 20 19 22 18 12 15 19 22 22 15 13 15 9 6 7 8 11 9 6 6 6 6 4 3 4 6 8 6 6 10 9 10 13 14 11 5 12 17 7 -8 -11 3 14 7 0 -1 2 -3 -9 4 13 7 3 4 10 11 3 9 16 6 0
17 21 22 21 22 27 30 30 29 30 27 23 20 21 22 21 18 14 11 10 13 13 13 17 19 20 22 21 19 21 16 15 22 20 20 24 16 11 8 -2 -4 0 3 6 4 4 7 6 5 4 4 4 5 9 5 2 8 8 7 10 12 12 7 7 10 1 -9 -6 6 12 7 -3 -5 3 -0 -8 4 16 12 5 4 9 4 -1 14 19 10 8
7 10 10 10 12 15 17 19 23 29 35 33 26 21 18 18 20 20 17 12 11 13 14 15 15 17 22 21 18 22 16 11 25 27 18 21 17 9 6 4 7 8 8 8 3 4 8 6 5 2 2 5 4 6 7 2 3 6 5 5 7 11 8 4 2 -0 -1 -1 3 8 2 -8 -5 8 8 -1 3 11 15 12 1 -2 -5 -3 13 17 13 15
8 7 7 9 8 5 5 3 2 4 11 23 29 29 25 19 15 15 17 15 12 12 12 13 12 11 17 19 15 21 19 9 21 31 20 18 20 14 11 11 13 12 11 11 8 7 8 6 5 2 1 4 5 5 7 6 5 6 6 5 7 9 10 11 6 1 1 2 6 3 -9 -10 -3 5 9 4 0 5 13 11 -1 -3 -3 -4 7 14 12 14
6 5 7 11 6 1 4 4 1 -2 -3 2 9 14 23 28 25 17 10 10 14 14 11 12 13 8 8 16 16 18 22 14 16 28 23 18 19 17 13 10 9 12 12 11 10 9 8 6 5 8 8 4 6 7 5 8 7 4 5 6 7 8 13 20 15 8 6 0 4 1 -11 -7 -3 -3 5 5 -1 3 9 8 1 3 6 1 6 11 8 12
6 1 3 12 9 4 7 8 6 6 4 3 4 3 7 16 25 30 22 11 9 13 13 11 10 6 4 11 17 18 22 21 19 24 23 18 19 19 15 11 9 11 10 6 8 9 8 5 -0 5 11 3 4 9 7 8 7 5 7 4 5 10 13 18 16 14 8 -7 -0 12 2 -4 -5 -4 6 7 1 1 3 7 5 4 8 5 6 9 7 13
11 4 -1 6 10 8 8 9 10 11 8 7 9 8 8 6 7 22 35 28 15 10 12 11 8 7 5 6 12 16 21 24 23 25 21 15 18 21 18 15 12 11 9 5 7 9 9 7 -0 1 8 3 3 9 9 10 8 8 11 2 2 11 12 13 17 17 9 -7 0 18 11 -2 -7 -3 9 10 5 2 0 4 5 4 6 4 7 13 12 15
14 10 6 8 12 11 9 9 10 12 13 13 13 9 11 11 2 9 29 35 28 20 15 14 11 8 8 7 7 10 18 25 25 26 22 11 10 20 19 16 14 11 9 8 7 8 11 11 6 4 6 3 2 7 9 11 6 5 10 4 2 9 9 8 13 16 12 -1 3 17 11 -1 -6 -1 12 15 7 4 2 2 2 4 6 3 5 12 14 17
14 15 14 12 11 11 11 11 10 10 14 16 16 13 12 12 4 9 27 31 29 29 22 16 15 11 10 10 8 6 11 23 29 26 23 11 4 14 19 14 16 15 10 10 9 7 10 12 9 6 5 3 2 5 6 6 5 4 5 4 4 8 11 10 8 13 16 6 5 15 12 3 2 6 13 17 12 5 2 1 -2 -0 5 6 2 1 7 13
14 16 16 12 11 12 11 11 9 10 13 15 17 17 14 11 5 10 33 37 27 30 29 19 17 14 12 12 12 8 4 17 33 29 23 16 3 8 19 15 14 17 12 10 11 9 8 10 10 8 6 3 2 4 6 5 8 9 4 2 3 4 7 10 7 8 14 9 5 12 13 11 12 9 10 19 20 11 4 3 0 -4 -2 6 6 -1 2 7
13 13 13 11 12 13 10 10 10 11 15 17 18 16 11 11 10 15 36 39 20 21 30 25 18 16 14 11 12 15 7 9 29 34 25 20 7 4 16 17 13 16 14 11 12 12 10 9 10 10 6 2 2 4 5 4 6 11 9 4 5 5 4 9 10 6 9 10 5 7 12 17 17 9 3 8 14 15 10 7 6 -0 -4 3 10 7 7 10
12 11 12 12 13 12 11 12 13 15 18 18 18 16 11 9 13 20 33 28 8 9 27 31 22 16 16 13 10 16 13 6 20 37 34 23 10 3 11 17 15 15 15 13 12 12 11 9 9 11 7 2 6 8 6 6 5 7 10 6 5 7 3 3 7 6 5 7 8 4 7 21 29 18 5 2 9 18 16 7 4 2 -1 -1 3 6 10 12
12 9 11 14 13 11 12 13 14 16 18 19 18 15 11 9 14 24 31 23 8 6 23 35 27 16 16 16 12 13 14 7 9 28 40 32 13 3 8 16 16 14 15 15 13 12 11 11 10 12 10 7 12 15 11 10 7 6 12 10 4 5 4 3 5 7 6 4 6 6 6 19 30 23 16 16 18 22 24 17 10 6 7 8 4 6 10 8
11 8 11 16 13 9 10 11 14 18 19 20 18 12 10 10 16 29 32 23 13 9 19 28 22 17 17 16 15 12 13 12 8 14 32 42 27 5 3 17 19 12 13 15 14 12 10 11 11 10 9 10 16 19 15 11 6 4 10 11 7 3 4 9 8 6 10 6 3 8 8 12 18 14 16 23 20 19 22 21 18 17 19 22 18 13 9 7
13 10 11 15 14 10 9 8 12 19 21 20 16 11 11 11 17 31 32 23 19 19 24 22 12 12 17 14 14 15 12 13 12 9 14 36 50 24 -3 11 25 15 11 14 14 13 10 10 12 9 2 3 11 10 7 7 4 2 4 5 8 5 0 5 5 2 8 5 3 11 5 1 10 9 10 19 18 16 18 16 18 22 20 19 18 14 8 6
13 12 11 14 13 9 8 10 10 15 21 22 17 11 11 16 23 30 27 21 23 25 25 21 10 9 15 13 10 12 13 12 15 16 4 12 52 52 7 -0 24 22 12 13 14 14 12 9 9 10 3 -0 8 9 4 6 4 2 3 0 4 8 2 1 4 5 6 2 4 10 -3 -8 8 7 4 15 16 13 15 12 12 17 17 14 14 13 11 10
13 13 12 13 16 12 13 15 10 11 19 23 19 13 11 19 29 31 23 17 18 18 16 14 12 11 14 16 11 8 13 12 9 18 10 -0 35 63 29 -2 14 28 17 12 15 14 12 10 8 11 9 2 6 12 8 7 7 5 7 3 1 6 5 3 4 3 4 5 6 5 -3 -2 9 8 3 12 16 15 12 8 12 18 18 14 12 11 16 26
13 14 12 13 17 14 12 13 9 10 17 18 18 16 13 20 31 29 20 15 13 15 14 10 9 10 9 12 12 8 11 12 5 11 18 9 23 56 50 10 4 25 24 12 17 16 9 12 10 8 11 8 7 13 10 7 9 7 7 7 5 4 4 8 8 -0 -0 9 6 -0 2 6 10 11 9 7 10 15 11 5 9 17 19 15 11 10 19 32
13 14 12 12 15 15 11 9 6 9 15 16 17 17 15 23 33 25 15 14 11 9 10 9 6 8 6 7 10 7 7 12 13 16 22 22 25 48 60 29 2 18 29 15 16 20 10 10 13 8 9 12 11 12 10 8 10 10 10 10 7 4 2 5 9 3 1 5 1 -1 9 12 11 16 15 7 5 10 12 8 2 3 13 19 16 11 17 27
12 14 14 12 14 14 13 9 4 7 15 16 16 16 16 24 34 26 13 10 5 -0 5 11 12 14 13 10 11 13 13 15 18 18 17 19 25 40 59 47 10 8 26 22 16 21 14 8 12 10 9 12 14 13 8 7 10 13 12 8 3 3 2 2 6 7 5 5 3 6 14 14 13 14 12 6 3 4 6 6 -1 -2 9 21 21 17 17 20
12 14 15 17 14 9 10 11 6 7 13 16 16 16 17 23 33 31 15 3 -3 -2 5 10 13 17 16 13 13 16 18 15 14 16 13 11 19 31 53 61 29 1 13 26 20 19 19 12 8 10 12 11 14 14 7 4 10 13 14 11 8 8 7 3 4 4 2 3 6 10 13 15 16 14 10 7 2 -1 1 2 -0 5 10 8 5 7 11 14
14 14 14 18 14 7 10 14 10 7 11 15 17 17 17 17 26 34 27 10 1 4 8 8 11 15 16 17 16 14 16 17 15 20 19 14 18 27 44 64 46 4 -0 25 30 18 16 15 8 8 13 12 14 15 4 -1 8 12 12 12 10 10 9 7 9 9 3 1 6 10 9 9 12 8 6 10 4 -5 1 6 1 6 10 -0 -10 -5 3 9
Height
5869 5868 5867 5867 5866 5866 5865 5865 5864 5864 5864 5863 5863 5862 5862 5862 5862 5861 5861 5860 5860 5860 5861 5861 5861 5861 5860 5860 5861 5861 5861 5861 5861 5862 5862 5864 5866 5867 5868 5869 5870 5870 5872 5874 5875 5877 5878 5879 5880 5881 5882 5883 5883 5884 5884 5885 5886 5887 5888 5888 5888 5889 5890 5891 5892 5892 5893 5894 5894 5894 5895 5896 5896 5896 5896 5897 5896 5896 5896 5896 5894 5895 5895 5895 5896 5896 5897 5897
5867 5866 5865 5865 5864 5864 5863 5863 5862 5862 5862 5861 5861 5860 5860 5860 5860 5860 5859 5859 5859 5859 5859 5859 5859 5859 5859 5859 5859 5860 5860 5860 5860 5860 5862 5863 5865 5866 5867 5868 5869 5870 5871 5873 5874 5875 5876 5877 5878 5879 5881 5881 5882 5883 5884 5885 5885 5886 5888 5888 5888 5889 5890 5892 5892 5892 5893 5893 5893 5894 5895 5896 5896 5896 5896 5896 5896 5896 5896 5896 5895 5895 5895 5896 5896 5897 5897 5898
5865 5864 5863 5863 5862 5861 5861 5861 5860 5860 5860 5859 5858 5858 5858 5858 5858 5858 5858 5857 5857 5857 5857 5857 5857 5857 5857 5857 5858 5858 5858 5858 5858 5859 5861 5862 5863 5864 5865 5866 5867 5868 5869 5870 5871 5872 5873 5874 5876 5877 5878 5880 5882 5883 5883 5884 5885 5886 5887 5887 5888 5889 5891 5892 5892 5893 5893 5893 5893 5893 5894 5895 5895 5896 5895 5896 5897 5896 5896 5896 5895 5894 5895 5896 5896 5897 5898 5898
5862 5862 5861 5860 5860 5859 5858 5858 5858 5858 5857 5857 5856 5856 5856 5856 5856 5856 5856 5856 5855 5855 5856 5855 5855 5855 5855 5855 5856 5856 5856 5857 5857 5858 5859 5860 5861 5861 5862 5864 5865 5866 5867 5868 5869 5870 5870 5872 5875 5876 5877 5879 5881 5883 5883 5883 5884 5885 5886 5886 5887 5888 5890 5892 5892 5892 5893 5893 5893 5893 5894 5895 5895 5896 5896 5896 5897 5896 5896 5896 5895 5895 5895 5896 5897 5897 5898 5898
5859 5859 5858 5857 5857 5856 5856 5855 5855 5855 5855 5854 5854 5853 5853 5853 5853 5853 5853 5853 5853 5853 5854 5853 5853 5853 5853 5853 5854 5854 5854 5855 5855 5856 5857 5858 5859 5859 5860 5862 5862 5864 5865 5866 5868 5869 5870 5873 5875 5876 5877 5879 5881 5883 5882 5882 5883 5884 5884 5885 5886 5887 5889 5891 5891 5891 5892 5892 5892 5893 5893 5894 5895 5896 5896 5895 5895 5896 5897 5896 5895 5895 5896 5896 5897 5898 5898 5898
5856 5856 5855 5854 5854 5853 5852 5852 5852 5852 5851 5851 5851 5851 5851 5851 5851 5851 5851 5851 5851 5851 5851 5851 5851 5851 5851 5851 5851 5852 5852 5852 5854 5855 5855 5856 5857 5857 5859 5860 5860 5861 5864 5865 5867 5868 5870 5872 5874 5876 5877 5879 5881 5882 5881 5881 5882 5882 5883 5884 5885 5886 5887 5889 5891 5891 5892 5892 5892 5892 5893 5894 5894 5895 5896 5895 5895 5897 5896 5895 5895 5896 5896 5897 5897 5898 5898 5898
5853 5852 5852 5851 5850 5850 5849 5849 5848 5848 5848 5848 5848 5847 5848 5848 5848 5848 5848 5848 5848 5849 5849 5849 5849 5849 5849 5849 5849 5849 5849 5850 5852 5853 5853 5854 5855 5855 5857 5859 5859 5860 5863 5864 5865 5867 5869 5871 5873 5875 5876 5878 5880 5879 5879 5881 5881 5881 5883 5883 5884 5885 5886 5887 5889 5891 5891 5891 5891 5892 5892 5893 5894 5895 5896 5895 5895 5896 5895 5895 5896 5896 5896 5897 5897 5898 5898 5898
5850 5849 5848 5848 5847 5846 5845 5845 5845 5844 5844 5844 5844 5844 5844 5844 5845 5845 5845 5845 5845 5846 5846 5847 5847 5847 5847 5847 5847 5847 5847 5848 5849 5850 5850 5852 5853 5853 5855 5857 5858 5859 5860 5862 5864 5866 5867 5870 5872 5873 5874 5876 5877 5877 5878 5880 5880 5881 5882 5882 5882 5883 5884 5885 5887 5889 5890 5890 5889 5890 5892 5893 5893 5895 5895 5894 5895 5894 5894 5895 5896 5897 5897 5897 5897 5898 5898 5898
5847 5846 5845 5844 5843 5843 5842 5841 5841 5840 5840 5840 5840 5840 5840 5841 5841 5841 5841 5842 5842 5842 5843 5844 5844 5844 5844 5844 5844 5844 5845 5846 5846 5847 5848 5849 5851 5852 5852 5854 5855 5856 5857 5859 5861 5863 5865 5868 5870 5871 5872 5873 5874 5875 5876 5879 5880 5880 5880 5880 5880 5880 5881 5882 5884 5887 5889 5889 5889 5889 5890 5892 5892 5894 5894 5894 5895 5894 5894 5896 5897 5897 5897 5897 5898 5898 5898 5898
5843 5842 5841 5840 5839 5839 5838 5837 5837 5836 5836 5836 5836 5836 5836 5837 5837 5837 5837 5838 5838 5838 5839 5840 5841 5842 5842 5842 5842 5841 5842 5844 5844 5844 5846 5847 5849 5850 5850 5851 5853 5853 5854 5856 5859 5862 5864 5866 5866 5867 5868 5869 5871 5872 5875 5878 5878 5876 5877 5877 5878 5879 5880 5880 5882 5884 5886 5887 5888 5889 5890 5891 5892 5893 5894 5894 5895 5895 5895 5897 5897 5897 5897 5897 5898 5898 5898 5898
5840 5839 5838 5837 5836 5835 5834 5834 5833 5832 5832 5832 5832 5832 5832 5832 5832 5833 5833 5833 5834 5834 5835 5836 5837 5838 5839 5839 5839 5838 5840 5841 5841 5842 5843 5844 5846 5847 5848 5849 5850 5851 5852 5854 5857 5859 5860 5861 5862 5863 5865 5866 5868 5870 5873 5875 5874 5874 5875 5876 5877 5878 5879 5880 5881 5882 5883 5884 5886 5888 5889 5890 5891 5893 5893 5894 5895 5895 5895 5897 5897 5897 5897 5898 5898 5898 5899 5899
5837 5835 5834 5833 5832 5831 5831 5830 5829 5828 5828 5827 5827 5827 5828 5828 5828 5828 5828 5829 5829 5830 5831 5832 5833 5834 5836 5836 5834 5834 5837 5839 5839 5840 5841 5841 5842 5844 5845 5846 5847 5848 5850 5851 5853 5855 5855 5857 5857 5861 5864 5864 5866 5867 5869 5871 5872 5872 5873 5875 5876 5877 5878 5880 5881 5881 5881 5882 5884 5886 5887 5889 5891 5892 5893 5893 5894 5895 5895 5897 5897 5897 5897 5898 5898 5899 5899 5899
5833 5832 5831 5830 5829 5828 5827 5826 5825 5824 5824 5823 5823 5823 5823 5823 5824 5824 5824 5824 5824 5825 5826 5827 5829 5830 5832 5832 5830 5831 5834 5836 5837 5837 5837 5837 5838 5840 5842 5843 5844 5845 5847 5848 5849 5850 5851 5852 5855 5859 5860 5861 5863 5864 5866 5868 5869 5869 5870 5873 5875 5875 5878 5879 5880 5881 5880 5881 5883 5885 5887 5888 5890 5891 5893 5893 5893 5894 5895 5896 5896 5896 5897 5898 5898 5899 5899 5899
5830 5828 5827 5826 5825 5824 5823 5822 5821 5820 5820 5819 5818 5818 5818 5819 5819 5819 5819 5819 5819 5820 5821 5822 5824 5826 5828 5828 5825 5827 5831 5833 5834 5833 5832 5833 5834 5836 5838 5840 5841 5842 5844 5844 5845 5846 5848 5850 5852 5854 5855 5858 5862 5861 5863 5865 5866 5867 5869 5870 5872 5875 5877 5878 5879 5880 5880 5880 5881 5884 5886 5887 5889 5890 5892 5892 5892 5893 5895 5896 5896 5896 5896 5898 5898 5899 5899 5899
5826 5824 5822 5821 5820 5819 5818 5818 5817 5816 5815 5815 5814 5813 5814 5814 5814 5814 5814 5814 5814 5815 5816 5818 5819 5821 5824 5823 5819 5823 5827 5829 5829 5828 5829 5830 5831 5833 5835 5836 5837 5839 5841 5841 5841 5843 5844 5846 5849 5851 5854 5857 5857 5856 5859 5862 5863 5865 5866 5869 5871 5874 5876 5876 5878 5879 5879 5879 5880 5882 5884 5886 5889 5890 5890 5891 5891 5892 5894 5896 5896 5896 5896 5897 5898 5899 5899 5899
5821 5819 5818 5816 5815 5814 5813 5813 5812 5811 5810 5809 5809 5809 5809 5809 5809 5809 5808 5808 5808 5810 5812 5813 5814 5816 5819 5818 5816 5817 5821 5824 5825 5825 5828 5829 5829 5830 5831 5833 5834 5836 5837 5838 5838 5839 5840 5843 5847 5850 5851 5851 5851 5854 5857 5857 5859 5862 5864 5868 5871 5872 5874 5875 5877 5878 5878 5878 5878 5881 5882 5884 5887 5889 5889 5890 5891 5892 5894 5895 5896 5896 5896 5897 5898 5899 5899 5899
5817 5815 5813 5811 5810 5809 5808 5807 5806 5805 5805 5804 5803 5803 5803 5803 5804 5804 5803 5801 5802 5804 5806 5808 5809 5810 5812 5813 5812 5811 5814 5818 5821 5822 5824 5825 5825 5826 5827 5830 5832 5832 5833 5833 5834 5835 5837 5841 5844 5845 5846 5847 5849 5852 5852 5852 5857 5861 5863 5867 5870 5872 5873 5874 5876 5877 5876 5876 5877 5879 5881 5882 5885 5887 5888 5889 5890 5892 5893 5895 5896 5896 5896 5897 5898 5899 5900 5900
5812 5809 5807 5805 5804 5803 5802 5801 5800 5799 5799 5798 5798 5798 5798 5798 5798 5799 5796 5795 5797 5799 5800 5802 5804 5806 5806 5807 5808 5807 5808 5812 5816 5819 5820 5820 5820 5822 5823 5825 5826 5827 5827 5828 5831 5833 5835 5838 5840 5841 5842 5843 5845 5847 5848 5853 5858 5861 5862 5865 5868 5870 5872 5873 5874 5875 5875 5875 5876 5878 5879 5881 5884 5885 5887 5888 5890 5892 5892 5894 5895 5895 5895 5896 5897 5899 5900 5901
5806 5804 5802 5799 5798 5797 5795 5794 5793 5793 5792 5791 5791 5791 5792 5792 5792 5793 5789 5788 5791 5792 5794 5797 5799 5801 5801 5801 5802 5803 5804 5805 5810 5814 5816 5815 5815 5817 5818 5819 5820 5822 5823 5825 5829 5830 5832 5835 5835 5836 5839 5841 5844 5847 5851 5856 5859 5859 5860 5862 5866 5868 5871 5872 5872 5873 5873 5874 5875 5876 5878 5880 5882 5884 5886 5887 5889 5891 5891 5892 5894 5894 5895 5895 5896 5898 5900 5901
5800 5798 5795 5792 5791 5790 5788 5787 5786 5786 5785 5784 5784 5784 5785 5785 5786 5786 5782 5782 5785 5786 5788 5790 5793 5795 5795 5795 5796 5799 5801 5800 5803 5808 5811 5810 5809 5811 5812 5812 5815 5817 5820 5823 5826 5827 5828 5829 5831 5836 5841 5844 5846 5847 5851 5854 5855 5855 5857 5859 5862 5865 5869 5871 5871 5871 5871 5871 5874 5875 5876 5878 5881 5882 5884 5886 5887 5889 5891 5892 5893 5893 5894 5893 5894 5897 5899 5900
5793 5791 5789 5785 5783 5783 5781 5779 5778 5778 5778 5777 5777 5777 5778 5779 5779 5779 5776 5775 5776 5779 5782 5783 5785 5788 5789 5790 5791 5793 5796 5797 5799 5801 5804 5805 5804 5806 5807 5808 5810 5813 5818 5821 5821 5822 5821 5823 5831 5838 5840 5841 5842 5843 5846 5849 5851 5852 5854 5856 5859 5862 5866 5868 5868 5868 5868 5869 5872 5873 5873 5875 5879 5881 5882 5883 5885 5888 5890 5891 5892 5893 5893 5892 5893 5896 5898 5900
5787 5784 5782 5779 5775 5775 5774 5772 5770 5770 5770 5769 5769 5770 5770 5771 5771 5772 5772 5770 5768 5771 5774 5775 5778 5780 5783 5786 5786 5787 5791 5793 5794 5794 5797 5798 5799 5801 5802 5803 5806 5811 5816 5815 5814 5815 5816 5823 5833 5836 5835 5836 5837 5838 5841 5845 5847 5848 5850 5853 5857 5860 5863 5864 5865 5866 5866 5867 5870 5870 5870 5873 5876 5879 5880 5882 5884 5886 5888 5890 5891 5892 5892 5892 5892 5894 5897 5898
5780 5777 5776 5773 5769 5767 5766 5764 5762 5762 5761 5761 5761 5761 5762 5763 5762 5763 5765 5765 5763 5764 5766 5767 5769 5772 5776 5780 5781 5782 5785 5787 5788 5788 5790 5791 5794 5796 5797 5799 5802 5807 5809 5808 5810 5811 5815 5826 5832 5830 5829 5831 5832 5834 5837 5840 5842 5844 5846 5850 5855 5858 5860 5862 5864 5863 5863 5866 5868 5868 5868 5870 5872 5875 5877 5880 5882 5883 5885 5887 5889 5890 5890 5890 5891 5893 5896 5897
5775 5771 5769 5767 5763 5761 5760 5758 5756 5754 5753 5754 5753 5753 5753 5754 5754 5754 5755 5756 5757 5758 5758 5759 5761 5763 5768 5773 5775 5776 5778 5781 5781 5780 5781 5784 5787 5789 5791 5794 5797 5800 5803 5804 5807 5808 5814 5824 5825 5823 5825 5827 5828 5830 5833 5835 5838 5840 5843 5848 5853 5857 5859 5862 5861 5860 5861 5864 5865 5865 5865 5865 5866 5869 5873 5877 5879 5879 5881 5883 5885 5888 5889 5888 5889 5891 5894 5896
5769 5766 5764 5762 5759 5756 5754 5753 5751 5748 5747 5746 5746 5745 5745 5746 5746 5745 5747 5748 5748 5750 5750 5752 5754 5756 5760 5764 5766 5768 5770 5773 5772 5771 5774 5778 5781 5783 5785 5788 5790 5794 5797 5799 5802 5804 5812 5818 5817 5818 5821 5822 5824 5826 5829 5832 5835 5837 5840 5847 5852 5855 5858 5859 5857 5856 5858 5861 5862 5862 5861 5861 5862 5864 5870 5874 5875 5877 5879 5880 5883 5886 5887 5887 5887 5890 5893 5895
5764 5761 5758 5757 5755 5752 5750 5749 5747 5744 5742 5740 5739 5738 5738 5738 5738 5738 5739 5740 5740 5741 5742 5744 5746 5747 5752 5755 5757 5761 5763 5764 5763 5763 5767 5771 5773 5777 5780 5782 5785 5789 5792 5794 5795 5799 5808 5812 5811 5813 5815 5817 5819 5821 5825 5829 5831 5834 5840 5847 5850 5851 5854 5854 5853 5852 5854 5858 5861 5859 5858 5859 5860 5861 5866 5871 5872 5874 5876 5878 5882 5884 5885 5886 5887 5888 5891 5894
5759 5757 5754 5752 5750 5748 5747 5746 5743 5741 5740 5737 5734 5733 5731 5731 5731 5731 5732 5732 5733 5734 5734 5736 5738 5740 5744 5746 5750 5754 5753 5754 5755 5756 5759 5762 5766 5770 5773 5777 5781 5784 5787 5788 5787 5793 5803 5806 5804 5807 5810 5811 5814 5819 5823 5826 5828 5834 5841 5844 5844 5846 5850 5851 5850 5849 5852 5857 5857 5855 5855 5857 5856 5859 5865 5868 5869 5871 5873 5876 5880 5882 5884 5885 5886 5887 5890 5892
5754 5753 5750 5747 5745 5744 5742 5741 5739 5737 5736 5734 5732 5729 5727 5726 5725 5725 5725 5725 5727 5729 5728 5728 5730 5733 5735 5737 5741 5743 5743 5745 5748 5749 5753 5758 5761 5764 5766 5769 5773 5777 5780 5780 5782 5792 5800 5801 5801 5805 5807 5808 5813 5819 5822 5823 5826 5833 5837 5837 5838 5842 5846 5847 5847 5847 5851 5853 5851 5851 5853 5853 5852 5856 5862 5864 5865 5867 5870 5873 5877 5880 5883 5884 5884 5885 5888 5890
5750 5748 5745 5742 5740 5738 5736 5736 5734 5733 5732 5730 5728 5726 5724 5723 5721 5720 5719 5718 5720 5722 5722 5722 5724 5726 5727 5729 5732 5734 5736 5738 5740 5743 5748 5751 5753 5756 5759 5763 5765 5768 5772 5775 5779 5789 5794 5795 5797 5799 5802 5807 5812 5817 5818 5818 5823 5830 5831 5831 5834 5838 5841 5842 5841 5844 5848 5844 5844 5849 5851 5849 5850 5854 5857 5858 5860 5864 5869 5872 5875 5879 5881 5882 5884 5885 5886 5888
5745 5743 5741 5738 5735 5732 5730 5729 5727 5727 5726 5725 5723 5721 5720 5718 5717 5716 5714 5713 5714 5715 5716 5717 5717 5719 5719 5721 5723 5726 5729 5730 5732 5737 5741 5743 5746 5750 5753 5756 5757 5759 5764 5767 5772 5780 5785 5787 5789 5792 5798 5803 5807 5810 5812 5814 5820 5824 5825 5826 5829 5831 5835 5836 5836 5842 5841 5834 5838 5847 5848 5846 5847 5850 5853 5855 5860 5865 5868 5870 5873 5876 5879 5880 5882 5884 5885 5887
5742 5739 5736 5734 5731 5728 5725 5722 5720 5720 5719 5718 5717 5715 5714 5713 5712 5711 5709 5709 5709 5709 5711 5711 5711 5712 5712 5714 5716 5719 5721 5721 5725 5730 5733 5736 5739 5741 5743 5745 5746 5750 5755 5758 5763 5770 5774 5778 5782 5787 5792 5796 5798 5802 5806 5809 5814 5817 5818 5820 5822 5825 5829 5829 5831 5835 5830 5825 5836 5846 5847 5843 5840 5845 5851 5855 5861 5864 5865 5868 5871 5874 5877 5878 5881 5882 5884 5885
5739 5736 5733 5729 5727 5724 5720 5717 5715 5713 5712 5711 5711 5709 5708 5707 5706 5706 5705 5705 5703 5704 5707 5706 5705 5705 5706 5708 5710 5712 5714 5714 5717 5721 5724 5727 5729 5730 5731 5734 5738 5742 5747 5752 5756 5760 5764 5771 5777 5781 5785 5788 5791 5796 5800 5802 5806 5809 5811 5813 5815 5819 5822 5821 5823 5824 5820 5822 5835 5844 5843 5837 5834 5842 5850 5853 5859 5862 5862 5865 5868 5872 5875 5877 5879 5881 5882 5883
5737 5734 5730 5727 5724 5721 5718 5714 5711 5709 5707 5705 5705 5704 5703 5701 5700 5700 5701 5700 5697 5698 5701 5701 5700 5699 5700 5703 5704 5705 5707 5709 5711 5713 5715 5718 5720 5721 5724 5728 5733 5736 5742 5748 5749 5752 5759 5766 5770 5774 5779 5783 5786 5791 5793 5796 5800 5803 5806 5807 5809 5812 5813 5813 5816 5818 5817 5822 5834 5842 5839 5831 5830 5840 5847 5850 5856 5861 5862 5862 5864 5869 5873 5875 5877 5879 5880 5881
5736 5732 5728 5725 5722 5719 5716 5713 5710 5707 5704 5702 5700 5699 5698 5696 5695 5695 5695 5694 5693 5693 5695 5695 5695 5694 5694 5696 5697 5700 5702 5704 5706 5706 5707 5710 5712 5715 5718 5723 5728 5731 5738 5742 5742 5745 5752 5759 5766 5771 5776 5779 5782 5787 5792 5795 5799 5802 5805 5807 5808 5809 5810 5812 5815 5816 5817 5823 5833 5839 5832 5823 5827 5838 5846 5849 5854 5858 5860 5860 5861 5864 5869 5873 5875 5876 5877 5879
5733 5730 5726 5722 5719 5716 5713 5710 5708 5705 5702 5700 5697 5695 5694 5692 5690 5690 5689 5688 5688 5688 5689 5689 5689 5689 5689 5689 5691 5694 5697 5699 5701 5702 5702 5704 5705 5708 5711 5716 5720 5725 5731 5734 5735 5739 5745 5755 5765 5769 5772 5775 5779 5786 5790 5791 5794 5799 5802 5802 5804 5808 5812 5814 5816 5817 5819 5823 5829 5830 5823 5819 5827 5837 5844 5848 5849 5852 5857 5859 5859 5860 5864 5869 5871 5872 5874 5877
5730 5726 5722 5719 5716 5712 5709 5707 5704 5702 5699 5696 5694 5692 5690 5688 5686 5684 5683 5683 5683 5683 5683 5683 5683 5683 5683 5684 5685 5688 5691 5693 5696 5697 5698 5698 5699 5701 5704 5708 5713 5718 5721 5724 5728 5734 5739 5750 5757 5758 5763 5772 5777 5782 5784 5785 5790 5793 5795 5796 5802 5809 5811 5812 5815 5817 5818 5819 5822 5824 5820 5820 5826 5834 5840 5843 5845 5848 5852 5855 5857 5859 5861 5865 5867 5869 5871 5874
5726 5722 5719 5716 5712 5708 5705 5702 5700 5697 5694 5692 5690 5688 5686 5683 5681 5679 5678 5677 5676 5676 5677 5677 5676 5676 5677 5679 5680 5682 5684 5686 5690 5692 5693 5694 5694 5695 5697 5701 5705 5710 5713 5716 5722 5727 5733 5744 5750 5751 5759 5768 5771 5775 5777 5781 5785 5788 5791 5797 5803 5806 5806 5808 5811 5813 5813 5813 5816 5820 5820 5819 5823 5830 5837 5839 5841 5844 5848 5852 5855 5857 5859 5861 5864 5867 5869 5872
5722 5719 5715 5712 5708 5704 5701 5698 5695 5692 5689 5687 5685 5682 5680 5677 5675 5673 5671 5670 5668 5668 5669 5669 5669 5669 5671 5673 5675 5677 5678 5680 5683 5687 5688 5689 5690 5689 5691 5694 5698 5702 5706 5710 5715 5720 5726 5738 5745 5748 5755 5760 5763 5765 5768 5774 5780 5785 5792 5796 5797 5798 5799 5802 5804 5806 5807 5808 5812 5817 5818 5817 5819 5827 5834 5837 5838 5842 5845 5849 5852 5855 5858 5860 5863 5866 5868 5870
5717 5714 5710 5707 5704 5700 5697 5693 5690 5687 5684 5682 5679 5677 5674 5671 5668 5665 5663 5662 5661 5660 5661 5661 5662 5663 5664 5667 5669 5671 5672 5674 5677 5681 5682 5684 5685 5685 5686 5689 5692 5696 5699 5704 5709 5714 5721 5731 5739 5743 5748 5753 5756 5757 5762 5769 5776 5782 5786 5788 5790 5794 5797 5800 5801 5803 5805 5806 5809 5813 5814 5814 5818 5826 5833 5835 5837 5840 5843 5846 5849 5852 5856 5859 5861 5864 5866 5869
5713 5710 5706 5703 5699 5696 5692 5688 5685 5682 5679 5676 5673 5671 5669 5665 5661 5658 5655 5654 5653 5653 5653 5654 5655 5656 5658 5660 5662 5664 5666 5669 5672 5675 5676 5678 5680 5681 5681 5683 5686 5689 5693 5698 5702 5707 5714 5723 5731 5738 5742 5745 5749 5754 5762 5770 5774 5777 5778 5780 5783 5788 5792 5796 5798 5800 5803 5804 5807 5810 5810 5813 5819 5826 5830 5833 5836 5839 5841 5843 5846 5849 5853 5856 5859 5862 5864 5867
5710 5706 5702 5698 5694 5690 5687 5684 5680 5677 5674 5671 5668 5666 5663 5659 5655 5651 5648 5647 5646 5646 5647 5647 5648 5650 5651 5654 5656 5658 5661 5665 5667 5669 5670 5672 5674 5675 5676 5679 5681 5684 5687 5692 5696 5702 5708 5714 5725 5732 5735 5738 5745 5754 5762 5766 5768 5771 5773 5776 5780 5783 5787 5789 5790 5794 5799 5801 5804 5806 5807 5812 5819 5824 5826 5830 5834 5837 5839 5841 5844 5847 5850 5853 5856 5859 5862 5864
5705 5703 5699 5695 5690 5685 5682 5679 5676 5673 5669 5666 5663 5660 5657 5654 5650 5646 5643 5642 5641 5640 5641 5641 5642 5645 5646 5649 5651 5653 5656 5659 5660 5661 5663 5665 5667 5669 5671 5674 5677 5679 5682 5686 5690 5696 5701 5707 5718 5727 5730 5735 5745 5753 5758 5760 5763 5766 5768 5773 5778 5780 5782 5784 5787 5792 5797 5799 5802 5804 5806 5812 5819 5822 5824 5827 5830 5834 5837 5839 5841 5844 5847 5850 5853 5856 5858 5860
5701 5698 5695 5691 5686 5682 5678 5675 5672 5669 5665 5661 5658 5655 5652 5649 5645 5641 5639 5637 5637 5637 5637 5637 5638 5640 5642 5644 5646 5648 5650 5651 5652 5654 5656 5658 5661 5664 5667 5670 5672 5674 5677 5681 5684 5690 5696 5702 5712 5723 5728 5735 5744 5750 5753 5756 5758 5759 5762 5767 5771 5774 5779 5784 5788 5792 5795 5797 5801 5804 5806 5812 5817 5819 5821 5824 5827 5830 5833 5835 5838 5840 5843 5847 5850 5852 5854 5857
5697 5693 5691 5688 5684 5679 5675 5671 5668 5664 5660 5657 5653 5650 5647 5644 5640 5637 5635 5633 5633 5634 5633 5634 5635 5637 5638 5639 5641 5643 5643 5644 5645 5648 5650 5652 5654 5659 5663 5665 5667 5670 5672 5676 5680 5685 5690 5696 5706 5717 5724 5730 5738 5743 5746 5748 5749 5751 5756 5761 5765 5770 5777 5782 5785 5788 5790 5794 5799 5801 5806 5812 5814 5816 5819 5822 5824 5827 5829 5830 5833 5836 5840 5843 5846 5848 5851 5853
5694 5689 5686 5684 5680 5676 5672 5668 5665 5661 5656 5652 5649 5645 5643 5640 5635 5633 5632 5630 5630 5630 5630 5631 5632 5633 5634 5635 5636 5637 5638 5638 5639 5642 5644 5646 5648 5652 5657 5660 5662 5665 5667 5672 5676 5680 5685 5690 5698 5709 5715 5720 5727 5732 5735 5738 5741 5745 5752 5758 5763 5768 5772 5775 5779 5781 5784 5790 5794 5797 5804 5811 5812 5813 5817 5819 5822 5825 5826 5827 5830 5833 5836 5839 5842 5845 5847 5850
5691 5686 5683 5680 5677 5673 5669 5666 5662 5658 5654 5650 5646 5642 5639 5636 5632 5630 5629 5627 5626 5626 5627 5628 5629 5630 5630 5631 5632 5633 5633 5633 5634 5637 5639 5639 5641 5645 5650 5654 5657 5660 5664 5668 5672 5676 5681 5685 5691 5700 5708 5713 5719 5725 5729 5732 5737 5744 5750 5756 5761 5765 5767 5769 5772 5775 5781 5787 5790 5793 5802 5808 5808 5810 5814 5817 5820 5823 5824 5825 5828 5830 5833 5836 5839 5842 5844 5847
5689 5684 5679 5676 5673 5669 5665 5662 5659 5655 5651 5647 5643 5639 5637 5634 5630 5628 5626 5625 5624 5624 5625 5626 5626 5627 5627 5628 5629 5629 5630 5630 5631 5633 5633 5632 5633 5636 5640 5645 5650 5655 5660 5665 5668 5672 5676 5681 5686 5695 5704 5709 5715 5721 5725 5729 5735 5741 5747 5752 5757 5761 5763 5764 5766 5771 5779 5784 5786 5792 5799 5804 5805 5808 5812 5815 5818 5821 5823 5825 5828 5830 5832 5834 5837 5839 5841 5843
5686 5681 5676 5672 5670 5667 5663 5658 5655 5652 5648 5644 5640 5637 5634 5631 5628 5626 5624 5623 5623 5623 5624 5624 5624 5624 5624 5625 5626 5626 5627 5628 5629 5629 5628 5627 5628 5629 5632 5637 5643 5649 5655 5660 5664 5668 5673 5678 5683 5690 5699 5706 5712 5718 5722 5726 5732 5738 5743 5748 5752 5755 5758 5760 5764 5770 5775 5778 5784 5791 5797 5801 5804 5807 5810 5814 5816 5819 5821 5825 5828 5830 5832 5834 5835 5837 5838 5840
5683 5679 5674 5669 5666 5663 5661 5656 5651 5648 5645 5640 5637 5634 5632 5629 5626 5624 5623 5622 5622 5622 5622 5622 5622 5622 5622 5622 5622 5622 5624 5625 5626 5626 5624 5622 5622 5623 5625 5631 5636 5642 5649 5655 5659 5663 5669 5674 5678 5686 5696 5704 5710 5715 5718 5723 5730 5735 5740 5743 5745 5747 5752 5758 5764 5769 5772 5776 5783 5790 5794 5798 5803 5805 5809 5812 5813 5815 5818 5822 5825 5828 5830 5832 5834 5835 5837 5839
5681 5677 5672 5667 5662 5658 5657 5653 5649 5646 5642 5638 5635 5632 5629 5627 5625 5622 5621 5621 5621 5620 5620 5620 5620 5620 5620 5619 5619 5620 5620 5621 5621 5621 5619 5618 5618 5617 5618 5624 5630 5635 5643 5649 5654 5658 5665 5671 5675 5682 5694 5701 5705 5710 5715 5721 5727 5732 5733 5735 5738 5744 5751 5757 5763 5767 5770 5775 5781 5786 5790 5795 5800 5803 5806 5809 5810 5812 5815 5819 5823 5826 5828 5831 5832 5834 5836 5838
5679 5675 5670 5666 5661 5656 5653 5650 5647 5643 5640 5637 5633 5630 5627 5625 5623 5621 5620 5620 5619 5618 5618 5618 5618 5617 5617 5617 5617 5617 5617 5617 5617 5617 5615 5614 5614 5613 5613 5618 5624 5629 5636 5643 5649 5654 5662 5668 5672 5679 5690 5697 5700 5706 5713 5719 5724 5727 5728 5732 5738 5744 5750 5755 5759 5763 5767 5772 5778 5782 5786 5791 5797 5800 5803 5806 5808 5810 5813 5816 5820 5823 5826 5829 5830 5832 5834 5837
5678 5673 5668 5664 5660 5654 5650 5648 5645 5641 5638 5635 5631 5628 5625 5623 5621 5619 5618 5617 5616 5616 5616 5616 5616 5615 5614 5614 5614 5613 5613 5613 5613 5612 5611 5610 5610 5609 5609 5612 5618 5625 5631 5638 5644 5650 5658 5664 5668 5675 5686 5693 5696 5703 5711 5716 5719 5721 5724 5728 5734 5740 5745 5750 5755 5760 5764 5769 5774 5778 5783 5789 5792 5795 5799 5802 5805 5807 5810 5814 5817 5820 5823 5826 5828 5830 5833 5835